Total_Precipitation_Accumulation
0.07 0.08 0.11 0.14 0.16 0.27 0.80 1.28 0.84 0.21 0.19 0.52 0.42 0.20 0.01 0.00 0.00 0.00 0.00 0.00 0.00 0.00 0.00 0.00 0.00 0.05 0.01 0.00 0.00 0.00 0.00 0.00 0.01 0.01 0.00 0.01 0.02 0.01 0.03 0.13 0.10 0.05 0.10 0.09
0.08 0.10 0.13 0.15 0.19 0.42 1.10 1.51 0.69 0.47 0.45 0.30 0.18 0.12 0.02 0.00 0.00 0.00 0.00 0.00 0.00 0.00 0.00 0.00 0.00 0.01 0.00 0.00 0.00 0.00 0.00 0.01 0.01 0.06 0.03 0.00 0.01 0.02 0.05 0.02 0.11 0.24 0.21 0.07
0.07 0.11 0.17 0.17 0.20 0.43 1.37 1.86 0.91 0.87 0.99 0.37 0.08 0.11 0.05 0.01 0.00 0.00 0.00 0.00 0.00 0.00 0.00 0.00 0.00 0.00 0.00 0.00 0.00 0.00 0.00 0.02 0.03 0.11 0.29 0.27 0.05 0.01 0.04 0.04 0.11 0.08 0.11 0.10
0.07 0.07 0.13 0.16 0.24 0.52 1.81 2.06 0.77 0.37 0.50 0.30 0.13 0.11 0.16 0.06 0.01 0.00 0.00 0.00 0.00 0.00 0.00 0.00 0.00 0.00 0.00 0.00 0.00 0.00 0.02 0.01 0.01 0.03 0.11 0.21 0.23 0.15 0.10 0.08 0.04 0.07 0.01 0.03
0.14 0.10 0.09 0.15 0.26 0.72 2.11 1.88 0.38 0.17 0.13 0.13 0.16 0.17 0.15 0.04 0.02 0.01 0.01 0.00 0.00 0.00 0.00 0.00 0.00 0.00 0.01 0.00 0.01 0.01 0.02 0.01 0.00 0.00 0.00 0.00 0.01 0.04 0.09 0.13 0.11 0.10 0.06 0.02
0.26 0.19 0.14 0.13 0.23 0.87 2.08 1.26 0.23 0.26 0.20 0.08 0.32 0.33 0.08 0.04 0.03 0.03 0.01 0.01 0.03 0.02 0.01 0.00 0.00 0.01 0.00 0.01 0.03 0.05 0.07 0.08 0.05 0.02 0.00 0.00 0.01 0.00 0.00 0.01 0.01 0.01 0.02 0.00
0.28 0.31 0.28 0.23 0.22 0.61 1.06 0.68 0.17 0.37 0.36 0.15 0.07 0.06 0.08 0.08 0.07 0.10 0.05 0.04 0.04 0.03 0.01 0.02 0.04 0.02 0.00 0.01 0.02 0.08 0.17 0.13 0.16 0.08 0.02 0.11 0.03 0.00 0.00 0.00 0.00 0.00 0.00 0.01
0.31 0.35 0.35 0.30 0.29 0.40 0.65 0.70 0.40 0.19 0.21 0.11 0.06 0.05 0.06 0.10 0.11 0.08 0.06 0.05 0.07 0.11 0.07 0.09 0.05 0.02 0.03 0.00 0.00 0.04 0.15 0.19 0.27 0.14 0.06 0.05 0.00 0.00 0.00 0.00 0.00 0.01 0.01 0.03
0.19 0.27 0.36 0.41 0.40 0.43 0.57 0.66 0.63 0.52 0.38 0.15 0.01 0.03 0.05 0.08 0.14 0.18 0.09 0.12 0.18 0.17 0.24 0.17 0.13 0.08 0.07 0.06 0.03 0.03 0.20 0.23 0.22 0.25 0.19 0.07 0.00 0.00 0.00 0.00 0.00 0.01 0.00 0.02
0.13 0.20 0.32 0.43 0.44 0.50 0.64 0.62 0.49 1.07 0.94 0.14 0.04 0.03 0.05 0.06 0.12 0.23 0.17 0.22 0.27 0.23 0.24 0.20 0.09 0.07 0.06 0.12 0.16 0.05 0.14 0.33 0.32 0.26 0.19 0.05 0.00 0.00 0.01 0.05 0.04 0.00 0.00 0.00
0.13 0.16 0.22 0.42 0.58 0.56 0.85 0.69 0.28 0.60 0.96 0.26 0.05 0.04 0.07 0.06 0.16 0.27 0.25 0.50 0.35 0.22 0.21 0.14 0.10 0.10 0.10 0.05 0.13 0.10 0.08 0.18 0.25 0.26 0.26 0.11 0.02 0.11 0.20 0.14 0.01 0.00 0.00 0.00
0.19 0.18 0.16 0.23 0.51 0.79 1.14 1.20 0.35 0.32 0.68 0.46 0.13 0.04 0.02 0.05 0.13 0.35 0.42 0.23 0.29 0.09 0.08 0.08 0.11 0.14 0.12 0.08 0.09 0.10 0.12 0.02 0.06 0.06 0.06 0.05 0.12 0.15 0.16 0.09 0.06 0.04 0.01 0.00
0.18 0.25 0.25 0.21 0.30 0.66 1.67 1.36 0.34 0.68 1.13 0.67 0.24 0.08 0.00 0.01 0.04 0.13 0.26 0.17 0.22 0.24 0.19 0.20 0.18 0.15 0.07 0.08 0.04 0.11 0.17 0.04 0.10 0.14 0.13 0.15 0.32 0.20 0.02 0.01 0.01 0.01 0.01 0.00
0.22 0.28 0.34 0.28 0.29 0.56 1.61 1.48 0.39 0.50 0.70 0.57 0.23 0.04 0.07 0.04 0.04 0.05 0.08 0.11 0.17 0.26 0.40 0.30 0.22 0.15 0.06 0.06 0.04 0.05 0.10 0.12 0.05 0.17 0.26 0.27 0.47 0.40 0.11 0.01 0.00 0.00 0.01 0.00
0.31 0.36 0.41 0.43 0.44 0.86 1.56 0.92 0.25 0.17 0.38 0.44 0.20 0.09 0.04 0.07 0.11 0.09 0.12 0.15 0.20 0.30 0.42 0.41 0.23 0.16 0.15 0.10 0.15 0.12 0.06 0.19 0.25 0.41 0.27 0.24 0.29 0.10 0.02 0.01 0.01 0.01 0.01 0.01
0.34 0.42 0.53 0.62 0.85 1.39 1.94 2.21 1.36 0.26 0.36 0.78 0.45 0.21 0.08 0.04 0.07 0.11 0.08 0.15 0.30 0.43 0.42 0.31 0.31 0.25 0.40 0.23 0.18 0.13 0.03 0.04 0.04 0.07 0.10 0.06 0.05 0.03 0.01 0.01 0.01 0.00 0.00 0.01
0.39 0.58 0.69 0.91 1.06 0.81 0.63 0.69 0.57 0.25 0.47 0.95 0.75 0.32 0.18 0.07 0.10 0.22 0.31 0.37 0.44 0.34 0.37 0.22 0.18 0.22 0.40 0.48 0.50 0.26 0.10 0.05 0.05 0.04 0.04 0.03 0.02 0.02 0.01 0.01 0.01 0.02 0.01 0.01
0.66 0.85 0.85 1.07 0.96 0.70 0.41 0.05 0.01 0.09 0.51 0.56 0.65 0.68 0.50 0.17 0.16 0.30 0.37 0.57 0.57 0.56 0.43 0.20 0.16 0.28 0.40 0.56 0.17 0.04 0.06 0.07 0.06 0.06 0.06 0.04 0.03 0.03 0.03 0.02 0.03 0.04 0.05 0.05
1.03 1.21 1.62 1.93 1.28 1.01 0.43 0.14 0.16 0.17 0.30 0.26 0.32 0.53 0.82 0.26 0.23 0.18 0.38 0.34 0.58 0.47 0.28 0.17 0.30 0.34 0.58 0.36 0.07 0.02 0.01 0.01 0.00 0.01 0.02 0.05 0.06 0.05 0.03 0.03 0.03 0.02 0.02 0.02
0.95 1.03 1.31 1.84 0.97 0.30 0.32 0.70 0.72 0.52 0.26 0.17 0.20 0.27 0.49 0.31 0.28 0.20 0.36 0.30 0.26 0.32 0.19 0.19 0.29 0.42 0.36 0.13 0.05 0.02 0.01 0.00 0.01 0.01 0.01 0.01 0.04 0.06 0.06 0.06 0.08 0.08 0.07 0.06
0.44 0.65 1.01 1.03 0.44 0.19 0.33 0.60 0.40 0.28 0.16 0.14 0.25 0.21 0.21 0.17 0.15 0.15 0.23 0.28 0.22 0.18 0.17 0.23 0.34 0.25 0.19 0.11 0.09 0.03 0.01 0.01 0.01 0.01 0.01 0.02 0.03 0.05 0.06 0.06 0.06 0.07 0.09 0.12
0.11 0.33 0.54 0.46 0.24 0.23 0.20 0.16 0.16 0.13 0.16 0.11 0.15 0.18 0.17 0.22 0.14 0.18 0.20 0.39 0.31 0.24 0.23 0.27 0.20 0.19 0.06 0.02 0.03 0.03 0.02 0.02 0.02 0.03 0.04 0.05 0.07 0.09 0.09 0.10 0.12 0.14 0.15 0.16
0.00 0.02 0.03 0.03 0.04 0.08 0.08 0.08 0.11 0.13 0.20 0.11 0.10 0.10 0.15 0.15 0.19 0.27 0.12 0.27 0.56 0.31 0.28 0.21 0.14 0.12 0.03 0.03 0.03 0.03 0.03 0.03 0.03 0.04 0.05 0.05 0.05 0.06 0.08 0.10 0.14 0.13 0.16 0.23
0.00 0.00 0.00 0.01 0.02 0.06 0.10 0.10 0.08 0.11 0.11 0.13 0.22 0.08 0.18 0.16 0.17 0.23 0.22 0.17 0.19 0.42 0.21 0.11 0.13 0.12 0.10 0.09 0.08 0.06 0.08 0.09 0.09 0.12 0.11 0.12 0.13 0.16 0.18 0.21 0.26 0.20 0.27 0.39
0.00 0.00 0.02 0.04 0.12 0.11 0.11 0.08 0.08 0.08 0.09 0.20 0.27 0.23 0.24 0.24 0.24 0.15 0.15 0.14 0.13 0.12 0.11 0.13 0.16 0.15 0.12 0.14 0.14 0.14 0.15 0.16 0.18 0.19 0.18 0.21 0.22 0.17 0.24 0.30 0.29 0.25 0.28 0.31
0.00 0.03 0.07 0.07 0.09 0.09 0.07 0.07 0.09 0.09 0.11 0.16 0.17 0.14 0.13 0.18 0.18 0.12 0.10 0.08 0.09 0.14 0.19 0.17 0.16 0.17 0.18 0.20 0.22 0.25 0.27 0.25 0.26 0.27 0.26 0.25 0.25 0.23 0.27 0.27 0.26 0.28 0.24 0.25
0.01 0.04 0.06 0.06 0.06 0.08 0.09 0.07 0.06 0.05 0.07 0.11 0.12 0.12 0.14 0.11 0.08 0.16 0.16 0.19 0.22 0.22 0.32 0.35 0.30 0.31 0.33 0.31 0.30 0.31 0.30 0.29 0.29 0.29 0.27 0.27 0.28 0.22 0.16 0.19 0.30 0.24 0.23 0.20